Find OneWeb SL0445

NORAD ID: 51639 Int'l Des: 2022-012 Owner: ONEWEBN Country: UK Constellation: oneweb operational
LEOCIRCULARPOLARONEWEB_TYPE

Live Position

Loading 3D Globe...

About OneWeb SL0445

Description loading...

Upcoming Passes

Passes for default location (London). Set your location on the main map for personalized predictions.

Altitude History

Loading altitude history...

Two-Line Element Set

1 51639U 22012T 26124.05929785 .00000209 00000-0 56116-3 0 9994
2 51639 87.8866 45.0329 0001635 75.4720 284.6589 13.10378422203561
Epoch: May 4, 2026 • Age: 12 hours

Current Status

Altitude 1248.5 km
Velocity 7.23 km/s
Sub-Earth Point -68.59°S, 31.43°W
Launch Date Feb 10, 2022
Age 4.2 years
Type internet

Technical Details

Classification Payload
Mass 148.00 kg
Dry Mass 140.00 kg
Total Mass 148.00 kg
Length 1.30 m
Diameter 1.00 m
Span 5.00 m
Shape Trapezoid+2 pan
Manufacturer ONEWUS
Bus Type ARROW
Phase Status In Orbit
Owner/State ONEWEBN/UK

Most Searched